Regional Weather Roundup
Issued by NWS

Home | Current Version | Previous Version | Text Only | Print | Product List | Glossary On
Versions: 1 2 3 4 5 6 7 8 9 10 11 12 13 14 15 16 17 18 19 20 21 22 23 24 25 26 27 28 29 30 31 32 33 34 35 36 37 38 39 40 41 42 43 44 45 46 47 48 49 50
606
ASUS43 KDTX 292001
RWRMI
MICHIGAN HOURLY REGIONAL WEATHER ROUNDUP
NATIONAL WEATHER SERVICE DETROIT/PONTIAC MI
400 PM EDT SAT APR 29 2017

NOTE: "FAIR" INDICATES FEW OR NO CLOUDS BELOW 12,000 FEET WITH NO
SIGNIFICANT WEATHER AND/OR OBSTRUCTION TO VISIBILITY.

MIZ047>049-052>055-059>063-066>070-074>076-081>083-292100-
SOUTHEAST LOWER MICHIGAN

CITY           SKY/WX    TMP DP  RH WIND       PRES   REMARKS
ADRIAN         LGT RAIN  47  40  76 E7        30.22R
ALMA           CLOUDY    54  34  48 NE7       30.21F
ANN ARBOR      CLOUDY    50  40  68 N13       30.17F
BAD AXE        CLOUDY    45  32  61 NE5       30.27S
CARO           CLOUDY    52  34  51 NE5       30.23F
DETROIT CITY   CLOUDY    48  37  65 NE13G20   30.20F
DETROIT        CLOUDY    49  38  65 NE10      30.19F
FLINT          CLOUDY    54  37  52 NE10      30.20F
GROSSE ILE     CLOUDY    45  38  77 NE14G20   30.19R
HILLSDALE      CLOUDY    48  43  81 E13       30.13F
HOWELL         CLOUDY    51  36  55 NE7       30.17F

CITY           SKY/WX    TMP DP  RH WIND       PRES   REMARKS
JACKSON        CLOUDY    52  39  61 NE13      30.16F
LAMBERTVILLE   DRIZZLE   44  40  87 E3        30.20R
LANSING        CLOUDY    53  34  48 NE13      30.19F
LAPEER         CLOUDY    51  34  52 E7        30.22F
MASON          CLOUDY    51  40  65 NE8       30.18F
MONROE         CLOUDY    46  39  76 NE12      30.19S
MT. CLEMENS    CLOUDY    46  35  67 NE15      30.19F
PONTIAC        CLOUDY    50  37  61 NE10      30.18F
PORT HOPE        N/A     41  32  70 NE9       30.27R
PORT HURON     CLOUDY    41  30  65 N12G17    30.25F
TRI CITIES     CLOUDY    53  36  52 NE10      30.24F
MIDLAND        FAIR      52  35  51 E9        30.23F
TROY           CLOUDY    49  35  58 NE9G16    30.21F
SAGINAW HB     CLOUDY    54  30  40 NE9       30.23F
$$
MIZ043>046-050>051-056>058-064>065-071>073-077>080-292100-
SOUTHWEST LOWER MICHIGAN

CITY           SKY/WX    TMP DP  RH WIND       PRES   REMARKS
BATTLE CREEK   LGT RAIN  52  42  69 NE21      30.11F
BENTON HARBOR  CLOUDY    51  44  77 VRB6G16   30.14F
BIG RAPIDS     CLOUDY    51  30  43 E8        30.21F
COLDWATER      LGT RAIN  51  44  78 E5G28     30.16R
FREMONT        FAIR      54  28  37 E12       30.19F
HOLLAND        CLOUDY    55  37  50 E12       30.15F
GRAND RAPIDS   CLOUDY    54  38  54 NE13      30.17F
IONIA          CLOUDY    53  35  49 NE8       30.18F
KALAMAZOO      LGT RAIN  52  43  71 NE9       30.15F
LUDINGTON      CLOUDY    46  35  65 N10       30.22F
MARSHALL       CLOUDY    51  41  67 NE9G17    30.14F
MOUNT PLEASANT CLOUDY    55  30  39 N6        30.21F
MUSKEGON       CLOUDY    56  33  42 NE8       30.18F
SOUTH HAVEN    RAIN      51  44  78 NE15      30.08F
$$
MIZ016>042-292100-
NORTHERN LOWER MICHIGAN

CITY           SKY/WX    TMP DP  RH WIND       PRES   REMARKS
ALPENA         CLOUDY    50  29  44 NW10      30.27S
BEAVER ISLAND  CLOUDY    50  25  37 N7        30.30S
BELLAIRE       CLOUDY    49  29  45 N5        30.28S
CADILLAC       CLOUDY    48  31  50 N7        30.22F
CHARLEVOIX     MOSUNNY   45  30  55 NW8       30.32S
FRANKFORT      CLOUDY    45  29  53 N6        30.28F
GAYLORD        MOSUNNY   51  25  36 NE8       30.25R
GRAYLING       PTSUNNY   52  28  39 CALM      30.24S
HARBOR SPRINGS CLOUDY    53  28  38 N9G21     30.27S
HOUGHTON LAKE  PTSUNNY   53  27  36 N9        30.23F
MANISTEE       CLOUDY    49  29  46 NE10      30.25F
OSCODA         PTSUNNY   51  32  48 NE10G18   30.24F
PELLSTON       MOSUNNY   52  26  36 NW13      30.28S
ROGERS CITY    CLOUDY    48  29  47 NW10      30.29R
TRAVERSE CITY  CLOUDY    45  28  51 N9        30.28S
$$
MIZ007>008-015-292100-
EASTERN UPPER MICHIGAN

CITY           SKY/WX    TMP DP  RH WIND       PRES   REMARKS
KINROSS        SUNNY     45  26  47 N17       30.29R
MACKINAC ISLAN MOSUNNY   49  29  45 N9        30.28R
NEWBERRY       SUNNY     45  25  45 N13       30.31S
S. S. MARIE    SUNNY     46  28  49 NW15G21   30.29R
MUNISING         N/A     39  30  70 NW16      30.36R WCI  30
$$
MIZ004>006-011>014-085-292100-
CENTRAL UPPER MICHIGAN

CITY           SKY/WX    TMP DP  RH WIND       PRES   REMARKS
MANISTIQUE     CLOUDY    49  23  35 N10G21    30.31S
ESCANABA       CLOUDY    50  26  39 N8        30.32R
MENOMINEE      CLOUDY    47  27  45 E12       30.32F
SAWYER-GWINN   SUNNY     43  19  39 NE12      30.35R
$$
MIZ001>003-009>011-084-292100-
WESTERN UPPER MICHIGAN

CITY           SKY/WX    TMP DP  RH WIND       PRES   REMARKS
IRON MOUNTAIN  CLOUDY    51  18  27 E12       30.29S
HOUGHTON       SUNNY     46  27  47 N8        30.35R
COPPER HARBOR    N/A     39  28  64 N7        30.38R WCI  34
IRONWOOD       CLOUDY    43  25  49 NW12      30.36R
$$

ABBREVIATIONS USED IN REMARKS
   TC - TEMPERATURE IN CELSIUS
  WCI - WIND CHILL INDEX
   HX - HEAT INDEX
  VSB - VISIBILITY





USA.gov is the U.S. government's official web portal to all federal, state and local government web resources and services.